• In Hungary
  • List of Countries
  • For 7 days
  • Water Temperature
  • Satellite Maps
  • Weather Map
  • News
  • Weather Widgets
  • user-avatar
    Login

    Hourly Weather Banja Luka

    Today, 14 December, Thursday

    Time Temperature Precipitation Wind Pressure Humidity
    00:00 +2°C° 0 mm 2 mps 712 mmHg 92%
    01:00 +2°C° 0 mm 2 mps 712 mmHg 92%
    02:00 +1°C° 0 mm 3 mps 711 mmHg 91%
    03:00 +1°C° 0 mm 3 mps 711 mmHg 90%
    04:00 +2°C° 0 mm 3 mps 710 mmHg 89%
    05:00 +2°C° 0 mm 3 mps 710 mmHg 89%
    06:00 +2°C° 0 mm 3 mps 710 mmHg 88%
    07:00 +3°C° 0 mm 3 mps 710 mmHg 88%
    08:00 +3°C° 0 mm 4 mps 710 mmHg 87%
    09:00 +4°C° 0 mm 4 mps 710 mmHg 86%
    10:00 +5°C° 0 mm 5 mps 710 mmHg 85%
    11:00 +5°C° 0.1 mm 5 mps 710 mmHg 85%
    12:00 +6°C° 0.1 mm 5 mps 709 mmHg 84%
    13:00 +6°C° 0.1 mm 5 mps 709 mmHg 84%
    14:00 +6°C° 0.1 mm 5 mps 709 mmHg 85%
    15:00 +6°C° 0.1 mm 4 mps 709 mmHg 86%
    16:00 +6°C° 0.1 mm 4 mps 709 mmHg 87%
    17:00 +6°C° 0 mm 4 mps 709 mmHg 88%
    18:00 +6°C° 0 mm 4 mps 709 mmHg 89%
    19:00 +6°C° 0 mm 4 mps 709 mmHg 90%
    20:00 +6°C° 0 mm 4 mps 709 mmHg 90%
    21:00 +6°C° 0 mm 4 mps 709 mmHg 90%
    22:00 +6°C° 0 mm 5 mps 709 mmHg 90%
    23:00 +6°C° 0 mm 5 mps 708 mmHg 88%

    Tomorrow, 15 December, Friday

    Time Temperature Precipitation Wind Pressure Humidity
    00:00 +6°C° 0 mm 5 mps 708 mmHg 87%
    01:00 +5°C° 0 mm 6 mps 708 mmHg 86%
    02:00 +5°C° 0 mm 6 mps 707 mmHg 85%
    03:00 +7°C° 0 mm 6 mps 707 mmHg 84%
    04:00 +7°C° 0 mm 6 mps 706 mmHg 82%
    05:00 +7°C° 0 mm 6 mps 706 mmHg 82%
    06:00 +7°C° 0 mm 6 mps 706 mmHg 81%
    07:00 +6°C° 0 mm 7 mps 706 mmHg 81%
    08:00 +8°C° 0.1 mm 7 mps 706 mmHg 80%
    09:00 +9°C° 0.1 mm 7 mps 706 mmHg 79%
    10:00 +10°C° 0.1 mm 7 mps 706 mmHg 78%
    11:00 +10°C° 0.2 mm 6 mps 706 mmHg 78%
    12:00 +10°C° 0.2 mm 6 mps 705 mmHg 78%
    13:00 +10°C° 0.2 mm 5 mps 705 mmHg 78%
    14:00 +11°C° 0.6 mm 4 mps 705 mmHg 82%
    15:00 +10°C° 0.6 mm 3 mps 704 mmHg 86%
    16:00 +9°C° 0.6 mm 2 mps 704 mmHg 90%
    17:00 +9°C° 2.2 mm 2 mps 704 mmHg 92%
    18:00 +8°C° 2.2 mm 2 mps 704 mmHg 94%
    19:00 +8°C° 2.2 mm 2 mps 704 mmHg 96%
    20:00 +7°C° 1.5 mm 2 mps 704 mmHg 95%
    21:00 +7°C° 1.5 mm 2 mps 704 mmHg 95%
    22:00 +7°C° 1.5 mm 2 mps 704 mmHg 95%
    23:00 +6°C° 3.4 mm 2 mps 704 mmHg 95%

    Day after tomorrow, 16 December, Saturday

    Time Temperature Precipitation Wind Pressure Humidity
    00:00 +5°C° 3.4 mm 2 mps 705 mmHg 95%
    01:00 +6°C° 3.4 mm 1 mps 705 mmHg 95%
    02:00 +5°C° 1.6 mm 1 mps 705 mmHg 95%
    03:00 +5°C° 1.6 mm 1 mps 705 mmHg 95%
    04:00 +5°C° 1.6 mm 1 mps 705 mmHg 95%
    05:00 +5°C° 1 mm 1 mps 706 mmHg 95%
    06:00 +4°C° 1 mm 1 mps 706 mmHg 95%
    07:00 +4°C° 1 mm 1 mps 706 mmHg 95%
    08:00 +4°C° 0.6 mm 1 mps 707 mmHg 95%
    09:00 +4°C° 0.6 mm 1 mps 707 mmHg 94%
    10:00 +5°C° 0.6 mm 1 mps 708 mmHg 94%
    11:00 +5°C° 0.3 mm 1 mps 708 mmHg 93%
    12:00 +5°C° 0.3 mm 1 mps 708 mmHg 92%
    13:00 +5°C° 0.3 mm 1 mps 708 mmHg 91%
    14:00 +4°C° 0.4 mm 1 mps 708 mmHg 92%
    15:00 +4°C° 0.4 mm 1 mps 708 mmHg 93%
    16:00 +4°C° 0.4 mm 1 mps 708 mmHg 94%
    17:00 +2°C° 0.6 mm 2 mps 708 mmHg 94%
    18:00 +2°C° 0.6 mm 2 mps 709 mmHg 94%
    19:00 +2°C° 0.6 mm 2 mps 709 mmHg 94%
    20:00 +1°C° 0.8 mm 2 mps 709 mmHg 94%
    21:00 +1°C° 0.8 mm 2 mps 709 mmHg 94%
    22:00 0°C° 0.8 mm 3 mps 710 mmHg 94%
    23:00 0°C° 0.6 mm 3 mps 710 mmHg 94%

    17 December, Sunday

    Time Temperature Precipitation Wind Pressure Humidity
    00:00 0°C° 0.6 mm 3 mps 710 mmHg 93%
    01:00 -1°C° 0.6 mm 4 mps 710 mmHg 92%
    02:00 -1°C° 0.2 mm 3 mps 710 mmHg 92%
    03:00 -1°C° 0.2 mm 3 mps 711 mmHg 92%
    04:00 -2°C° 0.2 mm 3 mps 711 mmHg 92%
    05:00 -2°C° 0.2 mm 3 mps 711 mmHg 92%
    06:00 -2°C° 0.2 mm 3 mps 712 mmHg 92%
    07:00 -4°C° 0.2 mm 3 mps 713 mmHg 92%
    08:00 -2°C° 0.1 mm 3 mps 713 mmHg 90%
    09:00 -2°C° 0.1 mm 3 mps 714 mmHg 88%
    10:00 -2°C° 0.1 mm 3 mps 715 mmHg 86%
    11:00 -1°C° 0.1 mm 3 mps 715 mmHg 85%
    12:00 -1°C° 0.1 mm 3 mps 715 mmHg 84%
    13:00 -1°C° 0.1 mm 3 mps 715 mmHg 83%
    14:00 -1°C° 0.1 mm 3 mps 716 mmHg 85%
    15:00 -1°C° 0.1 mm 2 mps 716 mmHg 86%
    16:00 -2°C° 0.1 mm 2 mps 717 mmHg 88%
    17:00 -2°C° 0.1 mm 2 mps 717 mmHg 89%
    18:00 -3°C° 0.1 mm 2 mps 718 mmHg 90%
    19:00 -3°C° 0.1 mm 2 mps 718 mmHg 91%
    20:00 -3°C° 0.1 mm 2 mps 719 mmHg 91%
    21:00 -3°C° 0.1 mm 2 mps 719 mmHg 91%
    22:00 -3°C° 0.1 mm 2 mps 720 mmHg 92%
    23:00 -3°C° 0.1 mm 2 mps 720 mmHg 92%

    18 December, Monday

    Time Temperature Precipitation Wind Pressure Humidity
    00:00 -1°C° 0.1 mm 1 mps 720 mmHg 92%
    01:00 -1°C° 0.1 mm 1 mps 720 mmHg 93%
    02:00 -3°C° 0.1 mm 2 mps 720 mmHg 93%
    03:00 -3°C° 0.1 mm 2 mps 721 mmHg 93%
    04:00 -3°C° 0.1 mm 2 mps 721 mmHg 93%
    05:00 -3°C° 0.1 mm 2 mps 721 mmHg 93%
    06:00 -3°C° 0.1 mm 2 mps 721 mmHg 93%
    07:00 -4°C° 0.1 mm 2 mps 722 mmHg 93%
    08:00 -3°C° 0.1 mm 2 mps 722 mmHg 90%
    09:00 -2°C° 0.1 mm 2 mps 722 mmHg 87%
    10:00 -2°C° 0.1 mm 2 mps 723 mmHg 84%
    11:00 -2°C° 0.1 mm 2 mps 722 mmHg 82%
    12:00 -1°C° 0.1 mm 2 mps 722 mmHg 80%
    13:00 -1°C° 0.1 mm 2 mps 722 mmHg 77%
    14:00 0°C° 0 mm 1 mps 722 mmHg 80%
    15:00 0°C° 0 mm 1 mps 721 mmHg 83%
    16:00 -1°C° 0 mm 1 mps 721 mmHg 85%
    17:00 -2°C° 0 mm 1 mps 721 mmHg 86%
    18:00 -3°C° 0 mm 1 mps 721 mmHg 86%
    19:00 -3°C° 0 mm 1 mps 721 mmHg 87%
    20:00 -3°C° 0 mm 1 mps 721 mmHg 85%
    21:00 -3°C° 0 mm 1 mps 721 mmHg 83%
    22:00 -3°C° 0 mm 1 mps 721 mmHg 82%
    23:00 -3°C° 0 mm 1 mps 721 mmHg 81%

    19 December, Tuesday

    Time Temperature Precipitation Wind Pressure Humidity
    00:00 -3°C° 0 mm 1 mps 721 mmHg 79%
    01:00 -3°C° 0 mm 1 mps 721 mmHg 78%
    02:00 -3°C° 0 mm 1 mps 721 mmHg 79%
    03:00 -3°C° 0 mm 1 mps 721 mmHg 79%
    04:00 -3°C° 0 mm 1 mps 721 mmHg 80%
    05:00 -3°C° 0 mm 1 mps 722 mmHg 81%
    06:00 -3°C° 0 mm 1 mps 722 mmHg 82%
    07:00 -3°C° 0 mm 1 mps 722 mmHg 83%
    08:00 -1°C° 0 mm 1 mps 723 mmHg 81%
    09:00 0°C° 0 mm 1 mps 723 mmHg 79%
    10:00 +2°C° 0 mm 1 mps 724 mmHg 78%
    11:00 +3°C° 0 mm 1 mps 723 mmHg 78%
    12:00 +3°C° 0 mm 1 mps 723 mmHg 77%
    13:00 +4°C° 0 mm 1 mps 723 mmHg 77%
    14:00 +3°C° 0.1 mm 1 mps 723 mmHg 81%
    15:00 +2°C° 0.1 mm 1 mps 723 mmHg 84%
    16:00 +2°C° 0.1 mm 1 mps 723 mmHg 88%
    17:00 +2°C° 0.2 mm 1 mps 723 mmHg 90%
    18:00 +1°C° 0.2 mm 1 mps 724 mmHg 91%
    19:00 +1°C° 0.2 mm 1 mps 724 mmHg 92%
    20:00 +1°C° 0.3 mm 1 mps 724 mmHg 93%
    21:00 +1°C° 0.3 mm 1 mps 724 mmHg 93%
    22:00 +1°C° 0.3 mm 1 mps 724 mmHg 93%
    23:00 +1°C° 0.4 mm 1 mps 724 mmHg 93%
    Show more